EDT,Max TemperatureF,Mean TemperatureF,Min TemperatureF,Max Dew PointF,MeanDew PointF,Min DewpointF,Max Humidity, Mean Humidity, Min Humidity, Max Sea Level PressureIn, Mean Sea Level PressureIn, Min Sea Level PressureIn, Max VisibilityMiles, Mean VisibilityMiles, Min VisibilityMiles, Max Wind SpeedMPH, Mean Wind SpeedMPH, Max Gust SpeedMPH,PrecipitationIn, CloudCover, Events, WindDirDegrees
2013-4-1,50,45,39,44,34,19,86,64,41,30.10,29.96,29.82,10,10,6,16,7,24,0.02,6,Rain,292
2013-4-2,50,40,29,23,16,11,64,43,21,30.27,30.20,30.11,10,10,10,13,5,25,0.00,0,,317
2013-4-3,51,39,26,21,14,9,81,50,19,30.40,30.33,30.26,10,10,10,13,4,20,0.00,0,,14
2013-4-4,54,44,34,41,22,13,89,58,26,30.33,30.15,30.01,10,10,7,13,5,17,0.03,3,Rain,86
2013-4-5,66,50,34,41,34,24,100,62,24,30.12,30.01,29.97,10,5,0,15,5,32,0.00,1,Fog,284
2013-4-6,70,54,37,29,24,20,54,36,18,30.24,30.12,29.98,10,10,10,12,5,15,0.00,0,,83
2013-4-7,76,67,58,46,39,28,57,42,27,30.00,29.98,29.95,10,10,10,22,9,31,0.00,4,,205
2013-4-8,78,65,51,50,46,41,77,57,36,30.02,29.98,29.93,10,10,10,18,5,26,0.00,5,,209
2013-4-9,85,72,58,54,50,47,72,50,28,30.09,30.02,29.95,10,10,10,20,6,29,0.00,3,,205
2013-4-10,87,73,58,57,53,49,72,52,32,30.00,29.93,29.80,10,10,10,20,7,31,0.00,1,,213
2013-4-11,82,70,58,61,53,46,100,65,30,29.81,29.72,29.53,10,10,2,29,6,45,0.15,3,Rain,199
2013-4-12,60,55,50,57,45,33,100,68,36,29.93,29.70,29.49,10,10,5,21,10,26,0.08,6,Rain,243
2013-4-13,65,53,41,35,33,29,73,50,27,30.03,29.98,29.95,10,10,10,20,7,28,0.00,2,,252
2013-4-14,73,56,39,39,37,34,85,56,27,30.10,30.00,29.90,10,10,10,10,5,14,0.00,1,,57
2013-4-15,75,66,57,52,50,41,80,62,43,30.04,30.00,29.96,10,10,10,15,7,23,T,6,Rain,154
2013-4-16,87,74,60,61,55,50,93,63,32,30.22,30.10,30.01,10,8,1,21,7,29,1.01,4,Rain-Thunderstorm,211
2013-4-17,77,69,61,61,60,57,100,77,54,30.25,30.15,30.02,10,7,0,14,5,17,0.45,5,Fog-Rain,134
2013-4-18,86,72,57,59,55,50,93,65,37,30.02,29.89,29.72,10,10,10,20,9,26,0.00,1,,170
2013-4-19,75,60,44,61,45,30,87,67,46,30.03,29.75,29.54,10,8,2,25,12,33,0.33,6,Rain,232
2013-4-20,58,48,37,32,28,23,76,51,25,30.38,30.19,30.05,10,10,10,15,8,31,0.00,2,,271
2013-4-21,61,49,36,30,27,24,70,49,27,30.51,30.42,30.35,10,10,10,14,6,17,0.00,0,,38
2013-4-22,72,58,43,40,33,25,70,48,26,30.35,30.26,30.16,10,10,10,10,5,14,0.00,0,,87
2013-4-23,74,59,44,43,37,28,58,45,31,30.18,30.08,29.94,10,10,10,13,5,16,0.00,0,,168
2013-4-24,70,56,42,56,45,34,84,66,48,30.25,29.96,29.82,10,9,2,28,10,38,0.11,5,Rain,234
2013-4-25,63,51,39,39,33,25,93,58,23,30.35,30.30,30.25,10,10,6,15,5,25,0.00,4,,240
2013-4-26,65,51,36,36,30,25,76,49,22,30.47,30.40,30.34,10,10,10,8,1,13,0.00,0,,7
2013-4-27,67,56,45,51,42,36,86,60,34,30.35,30.26,30.12,10,10,9,12,2,17,0.01,5,Rain,161
2013-4-28,68,62,55,54,52,50,93,76,58,30.10,29.96,29.88,10,9,4,16,8,24,0.22,6,Rain,166
2013-4-29,65,59,53,56,54,52,100,84,67,30.01,29.97,29.92,10,8,3,9,3,12,0.02,8,Rain,192
2013-4-30,80,63,46,57,51,45,100,68,35,30.07,30.02,29.99,10,4,0,8,1,14,0.00,1,Fog,73